Location: Moscow
(38.8570°N, 84.2291°W)
Time: 20:35:11
(UTC+00:00)

UKube-1 - Pass Details

Date: 18 March 2026
Orbit: 527 x 530 km, 98.4° (Epoch: 11 April)

Event Time Altitude Azimuth Distance (km) Brightness Sun altitude
Rises 10:38:29 0° 19° (NNE) 2,670 ? -13.4°
Reaches altitude 10° 10:40:40 10° 26° (NNE) 1,776 ? -13.0°
Maximum altitude 10:44:22 47° 100° (E) 708 ? -12.3°
Drops below altitude 10° 10:48:02 10° 175° (S) 1,762 ? -11.6°
Sets 10:50:11 0° 181° (S) 2,646 ? -11.2°
